Hourly Data Report for November 09, 2003

TORONTO CITY
ONTARIO

43°40'00.000" N
79°24'00.000" W
112.50 m
6158355
71508
XTO

Download Data

Hourly Data (November 2003)
Hourly Data Report for November 9, 2003
TIME
LST
Temp Definition
°C
Dew Point Definition
°C
Rel Hum Definition
%
Precip. Amount Definition
mm

Wind Dir Definition
10's deg

Wind Spd Definition
km/h
Visibility Definition
km
Stn Press Definition
kPa
Hmdx Definition


Wind Chill Definition


Weather Definition


00:00 -1.9 -8.9 59   LegendMM LegendMM LegendMM 102.42     LegendNANA
01:00 -2.2 -8.4 62   LegendMM LegendMM LegendMM 102.44     LegendNANA
02:00 -2.6 -8.0 66   LegendMM LegendMM LegendMM 102.47     LegendNANA
03:00 -2.8 -8.0 67   LegendMM LegendMM LegendMM 102.47     LegendNANA
04:00 -2.2 -7.4 67   LegendMM LegendMM LegendMM 102.46     LegendNANA
05:00 -1.7 -7.3 66   LegendMM LegendMM LegendMM 102.49     LegendNANA
06:00 -1.3 -7.5 63   LegendMM LegendMM LegendMM 102.48     LegendNANA
07:00 -1.7 -7.9 63   LegendMM LegendMM LegendMM 102.49     LegendNANA
08:00 -1.3 -8.4 58   LegendMM LegendMM LegendMM 102.53     LegendNANA
09:00 0.7 -7.9 53   LegendMM LegendMM LegendMM 102.56     LegendNANA
10:00 1.9 -7.3 50   LegendMM LegendMM LegendMM 102.54     LegendNANA
11:00 3.3 -7.3 46   LegendMM LegendMM LegendMM 102.52     LegendNANA
12:00 4.6 -6.1 46   LegendMM LegendMM LegendMM 102.45     LegendNANA
13:00 4.7 -6.6 44   LegendMM LegendMM LegendMM 102.36     LegendNANA
14:00 4.6 -6.4 45   LegendMM LegendMM LegendMM 102.29     LegendNANA
15:00 4.2 -7.4 43   LegendMM LegendMM LegendMM 102.21     LegendNANA
16:00 4.0 -7.5 43   LegendMM LegendMM LegendMM 102.16     LegendNANA
17:00 3.6 -7.3 45   LegendMM LegendMM LegendMM 102.11     LegendNANA
18:00 3.4 -7.2 46   LegendMM LegendMM LegendMM 102.09     LegendNANA
19:00 3.1 -6.7 49   LegendMM LegendMM LegendMM 102.07     LegendNANA
20:00 2.8 -6.2 52   LegendMM LegendMM LegendMM 102.03     LegendNANA
21:00 2.3 -4.5 61   LegendMM LegendMM LegendMM 101.98     LegendNANA
22:00 1.3 -4.8 64   LegendMM LegendMM LegendMM 101.96     LegendNANA
23:00 0.9 -4.4 68   LegendMM LegendMM LegendMM 101.91     LegendNANA

Notes on Data Quality.

Legend

  • E = Estimated
  • M = Missing
  • NA = Not Available*
  • [empty] = Indicates an unobserved value
Date modified: